Time,TemperatureF,DewpointF,PressureIn,WindDirection,WindDirectionDegrees,WindSpeedMPH,WindSpeedGustMPH,Humidity,HourlyPrecipIn,Conditions,Clouds,dailyrainin,SolarRadiationWatts/m^2,SoftwareType,DateUTC
2013-03-04 00:06:00,25.4,19.0,30.16,WNW,300,0.0,0.0,78,0.00,,,0.00,0,weatherlink.com 1.10,2013-03-04 05:06:00,
2013-03-04 00:21:00,25.1,19.0,30.16,WNW,300,0.0,0.0,77,0.00,,,0.00,0,weatherlink.com 1.10,2013-03-04 05:21:00,
2013-03-04 00:36:00,25.0,18.0,30.17,WNW,300,0.0,0.0,76,0.00,,,0.00,0,weatherlink.com 1.10,2013-03-04 05:36:00,
2013-03-04 00:51:00,25.0,18.0,30.17,WNW,300,0.0,0.0,74,0.00,,,0.00,0,weatherlink.com 1.10,2013-03-04 05:51:00,
2013-03-04 01:06:00,24.8,18.0,30.17,WNW,300,0.0,0.0,74,0.00,,,0.00,0,weatherlink.com 1.10,2013-03-04 06:06:00,
2013-03-04 01:21:00,24.8,18.0,30.17,WNW,300,0.0,0.0,74,0.00,,,0.00,0,weatherlink.com 1.10,2013-03-04 06:21:00,
2013-03-04 01:36:00,24.7,18.0,30.18,WNW,300,0.0,0.0,75,0.00,,,0.00,0,weatherlink.com 1.10,2013-03-04 06:36:00,
2013-03-04 01:51:00,24.5,18.0,30.19,WNW,300,0.0,0.0,76,0.00,,,0.00,0,weatherlink.com 1.10,2013-03-04 06:51:00,
2013-03-04 02:06:00,24.4,18.0,30.18,WNW,300,0.0,0.0,77,0.00,,,0.00,0,weatherlink.com 1.10,2013-03-04 07:06:00,
2013-03-04 02:21:00,24.4,18.0,30.18,WNW,300,0.0,0.0,78,0.00,,,0.00,0,weatherlink.com 1.10,2013-03-04 07:21:00,
2013-03-04 02:36:00,24.1,18.0,30.19,WNW,300,0.0,0.0,78,0.00,,,0.00,0,weatherlink.com 1.10,2013-03-04 07:36:00,
2013-03-04 02:51:00,23.9,18.0,30.19,WNW,300,0.0,0.0,79,0.00,,,0.00,0,weatherlink.com 1.10,2013-03-04 07:51:00,
2013-03-04 03:06:00,23.6,18.0,30.19,WNW,300,0.0,0.0,79,0.00,,,0.00,0,weatherlink.com 1.10,2013-03-04 08:06:00,
2013-03-04 03:21:00,23.5,18.0,30.19,WNW,300,0.0,0.0,80,0.00,,,0.00,0,weatherlink.com 1.10,2013-03-04 08:21:00,
2013-03-04 03:36:00,23.2,18.0,30.19,WNW,300,0.0,0.0,80,0.00,,,0.00,0,weatherlink.com 1.10,2013-03-04 08:36:00,
2013-03-04 03:51:00,23.0,18.0,30.19,WNW,300,0.0,0.0,81,0.00,,,0.00,0,weatherlink.com 1.10,2013-03-04 08:51:00,
2013-03-04 04:06:00,22.9,18.0,30.20,WNW,300,0.0,0.0,82,0.00,,,0.00,0,weatherlink.com 1.10,2013-03-04 09:06:00,
2013-03-04 04:21:00,22.5,18.0,30.21,WNW,300,0.0,0.0,82,0.00,,,0.00,0,weatherlink.com 1.10,2013-03-04 09:21:00,
2013-03-04 04:36:00,22.5,18.0,30.21,WNW,300,0.0,0.0,84,0.00,,,0.00,0,weatherlink.com 1.10,2013-03-04 09:36:00,
2013-03-04 04:51:00,22.5,19.0,30.21,WNW,300,0.0,0.0,85,0.00,,,0.00,0,weatherlink.com 1.10,2013-03-04 09:51:00,
2013-03-04 05:06:00,22.5,19.0,30.21,WNW,300,0.0,0.0,85,0.00,,,0.00,0,weatherlink.com 1.10,2013-03-04 10:06:00,
2013-03-04 05:21:00,22.4,19.0,30.22,WNW,300,0.0,0.0,86,0.00,,,0.00,0,weatherlink.com 1.10,2013-03-04 10:21:00,
2013-03-04 05:36:00,22.4,19.0,30.22,WNW,300,0.0,0.0,86,0.00,,,0.00,0,weatherlink.com 1.10,2013-03-04 10:36:00,
2013-03-04 05:51:00,22.1,19.0,30.23,WNW,300,0.0,0.0,86,0.00,,,0.00,0,weatherlink.com 1.10,2013-03-04 10:51:00,
2013-03-04 06:06:00,21.9,19.0,30.24,WNW,300,0.0,0.0,87,0.00,,,0.00,0,weatherlink.com 1.10,2013-03-04 11:06:00,
2013-03-04 06:21:00,21.8,19.0,30.24,WNW,300,0.0,0.0,87,0.00,,,0.00,0,weatherlink.com 1.10,2013-03-04 11:21:00,
2013-03-04 06:36:00,21.6,18.0,30.24,WNW,300,0.0,0.0,87,0.00,,,0.00,0,weatherlink.com 1.10,2013-03-04 11:36:00,
2013-03-04 06:51:00,21.4,18.0,30.24,WNW,300,0.0,0.0,87,0.00,,,0.00,0,weatherlink.com 1.10,2013-03-04 11:51:00,
2013-03-04 07:07:00,21.3,18.0,30.24,WNW,300,0.0,0.0,87,0.00,,,0.00,5,weatherlink.com 1.10,2013-03-04 12:07:00,
2013-03-04 07:22:00,21.1,18.0,30.23,WNW,300,0.0,0.0,87,0.00,,,0.00,12,weatherlink.com 1.10,2013-03-04 12:22:00,
2013-03-04 07:37:00,20.8,18.0,30.24,WNW,300,0.0,0.0,87,0.00,,,0.00,19,weatherlink.com 1.10,2013-03-04 12:37:00,
2013-03-04 07:52:00,21.1,18.0,30.25,WNW,300,0.0,0.0,88,0.00,,,0.00,30,weatherlink.com 1.10,2013-03-04 12:52:00,
2013-03-04 08:07:00,21.8,19.0,30.25,WNW,300,0.0,0.0,89,0.00,,,0.00,49,weatherlink.com 1.10,2013-03-04 13:07:00,
2013-03-04 08:22:00,25.3,23.0,30.26,WNW,300,0.0,0.0,91,0.00,,,0.00,267,weatherlink.com 1.10,2013-03-04 13:22:00,
2013-03-04 08:37:00,27.5,25.0,30.25,WNW,300,0.0,0.0,89,0.00,,,0.00,316,weatherlink.com 1.10,2013-03-04 13:37:00,
2013-03-04 08:52:00,29.7,25.0,30.26,WNW,300,0.0,1.0,82,0.00,,,0.00,366,weatherlink.com 1.10,2013-03-04 13:52:00,
2013-03-04 09:07:00,31.6,24.0,30.26,NE,39,0.0,0.0,74,0.00,,,0.00,413,weatherlink.com 1.10,2013-03-04 14:07:00,
2013-03-04 09:22:00,33.7,25.0,30.26,NE,39,0.0,2.0,69,0.00,,,0.00,461,weatherlink.com 1.10,2013-03-04 14:22:00,
2013-03-04 09:37:00,34.1,24.0,30.24,ENE,63,1.0,3.0,67,0.00,,,0.00,506,weatherlink.com 1.10,2013-03-04 14:37:00,
2013-03-04 09:52:00,35.8,25.0,30.24,ESE,110,2.0,2.0,65,0.00,,,0.00,554,weatherlink.com 1.10,2013-03-04 14:52:00,
2013-03-04 10:07:00,37.9,24.0,30.25,East,85,0.0,2.0,57,0.00,,,0.00,591,weatherlink.com 1.10,2013-03-04 15:07:00,
2013-03-04 10:22:00,38.6,22.0,30.24,ENE,61,2.0,3.0,51,0.00,,,0.00,631,weatherlink.com 1.10,2013-03-04 15:22:00,
2013-03-04 10:37:00,39.2,19.0,30.24,ENE,74,0.0,5.0,44,0.00,,,0.00,666,weatherlink.com 1.10,2013-03-04 15:37:00,
2013-03-04 10:52:00,40.8,20.0,30.24,ENE,65,1.0,3.0,43,0.00,,,0.00,589,weatherlink.com 1.10,2013-03-04 15:52:00,
2013-03-04 11:07:00,40.9,20.0,30.23,South,172,0.0,5.0,44,0.00,,,0.00,724,weatherlink.com 1.10,2013-03-04 16:07:00,
2013-03-04 11:23:00,41.2,21.0,30.23,WNW,284,0.0,3.0,44,0.00,,,0.00,752,weatherlink.com 1.10,2013-03-04 16:23:00,
2013-03-04 11:38:00,43.2,23.0,30.23,WNW,300,0.0,4.0,45,0.00,,,0.00,777,weatherlink.com 1.10,2013-03-04 16:38:00,
2013-03-04 11:53:00,43.6,22.0,30.22,NNE,22,2.0,5.0,42,0.00,,,0.00,675,weatherlink.com 1.10,2013-03-04 16:53:00,
2013-03-04 12:08:00,43.9,22.0,30.21,East,81,2.0,5.0,42,0.00,,,0.00,766,weatherlink.com 1.10,2013-03-04 17:08:00,
2013-03-04 12:23:00,44.2,19.0,30.20,SSE,155,2.0,4.0,37,0.00,,,0.00,264,weatherlink.com 1.10,2013-03-04 17:23:00,
2013-03-04 12:38:00,43.6,19.0,30.19,SSW,194,0.0,2.0,38,0.00,,,0.00,450,weatherlink.com 1.10,2013-03-04 17:38:00,
2013-03-04 12:53:00,45.7,19.0,30.19,NW,315,0.0,3.0,35,0.00,,,0.00,733,weatherlink.com 1.10,2013-03-04 17:53:00,
2013-03-04 13:08:00,46.0,18.0,30.18,ENE,74,1.0,4.0,33,0.00,,,0.00,635,weatherlink.com 1.10,2013-03-04 18:08:00,
2013-03-04 13:23:00,46.4,21.0,30.17,South,180,4.0,4.0,37,0.00,,,0.00,664,weatherlink.com 1.10,2013-03-04 18:23:00,
2013-03-04 13:38:00,46.8,22.0,30.16,SSW,200,0.0,3.0,37,0.00,,,0.00,705,weatherlink.com 1.10,2013-03-04 18:38:00,
2013-03-04 13:53:00,47.1,18.0,30.14,WNW,283,0.0,3.0,32,0.00,,,0.00,694,weatherlink.com 1.10,2013-03-04 18:53:00,
2013-03-04 14:08:00,48.2,16.0,30.13,South,180,0.0,4.0,28,0.00,,,0.00,580,weatherlink.com 1.10,2013-03-04 19:08:00,
2013-03-04 14:23:00,48.3,19.0,30.12,South,179,0.0,2.0,31,0.00,,,0.00,360,weatherlink.com 1.10,2013-03-04 19:23:00,
2013-03-04 14:38:00,48.3,18.0,30.12,SW,223,0.0,4.0,30,0.00,,,0.00,492,weatherlink.com 1.10,2013-03-04 19:38:00,
2013-03-04 14:53:00,48.3,17.0,30.12,South,178,0.0,3.0,29,0.00,,,0.00,211,weatherlink.com 1.10,2013-03-04 19:53:00,
2013-03-04 15:08:00,48.2,19.0,30.12,SW,228,0.0,3.0,32,0.00,,,0.00,267,weatherlink.com 1.10,2013-03-04 20:08:00,
2013-03-04 15:23:00,48.5,20.0,30.12,SSW,213,0.0,2.0,32,0.00,,,0.00,244,weatherlink.com 1.10,2013-03-04 20:23:00,
2013-03-04 15:38:00,48.6,23.0,30.12,South,184,0.0,2.0,36,0.00,,,0.00,169,weatherlink.com 1.10,2013-03-04 20:38:00,
2013-03-04 15:53:00,48.5,18.0,30.11,SSE,167,3.0,3.0,30,0.00,,,0.00,135,weatherlink.com 1.10,2013-03-04 20:53:00,
2013-03-04 16:08:00,48.2,19.0,30.11,SSW,202,0.0,2.0,31,0.00,,,0.00,127,weatherlink.com 1.10,2013-03-04 21:08:00,
2013-03-04 16:23:00,48.3,21.0,30.10,SSW,202,0.0,3.0,34,0.00,,,0.00,151,weatherlink.com 1.10,2013-03-04 21:23:00,
2013-03-04 16:38:00,48.2,20.0,30.10,SSW,202,0.0,1.0,33,0.00,,,0.00,148,weatherlink.com 1.10,2013-03-04 21:38:00,
2013-03-04 16:53:00,48.5,20.0,30.09,SSE,159,0.0,4.0,33,0.00,,,0.00,116,weatherlink.com 1.10,2013-03-04 21:53:00,
2013-03-04 17:08:00,48.6,21.0,30.10,South,176,0.0,2.0,34,0.00,,,0.00,90,weatherlink.com 1.10,2013-03-04 22:08:00,
2013-03-04 17:23:00,48.6,23.0,30.09,South,176,0.0,0.0,37,0.00,,,0.00,67,weatherlink.com 1.10,2013-03-04 22:23:00,
2013-03-04 17:38:00,48.5,25.0,30.09,South,176,0.0,0.0,40,0.00,,,0.00,51,weatherlink.com 1.10,2013-03-04 22:38:00,
2013-03-04 17:53:00,48.3,24.0,30.09,South,176,0.0,0.0,39,0.00,,,0.00,32,weatherlink.com 1.10,2013-03-04 22:53:00,
2013-03-04 18:08:00,47.7,25.0,30.07,South,176,0.0,0.0,41,0.00,,,0.00,25,weatherlink.com 1.10,2013-03-04 23:08:00,
2013-03-04 18:23:00,47.1,24.0,30.08,South,176,0.0,0.0,41,0.00,,,0.00,5,weatherlink.com 1.10,2013-03-04 23:23:00,
2013-03-04 18:38:00,46.4,24.0,30.07,South,176,0.0,0.0,41,0.00,,,0.00,0,weatherlink.com 1.10,2013-03-04 23:38:00,
2013-03-04 18:53:00,45.7,22.0,30.07,South,176,0.0,0.0,40,0.00,,,0.00,0,weatherlink.com 1.10,2013-03-04 23:53:00,
2013-03-04 19:08:00,44.6,22.0,30.07,South,176,0.0,0.0,41,0.00,,,0.00,0,weatherlink.com 1.10,2013-03-05 00:08:00,
2013-03-04 19:23:00,43.8,22.0,30.07,South,176,0.0,0.0,42,0.00,,,0.00,0,weatherlink.com 1.10,2013-03-05 00:23:00,
2013-03-04 19:38:00,43.1,22.0,30.06,South,176,0.0,0.0,43,0.00,,,0.00,0,weatherlink.com 1.10,2013-03-05 00:38:00,
2013-03-04 19:53:00,42.5,22.0,30.05,South,176,0.0,0.0,44,0.00,,,0.00,0,weatherlink.com 1.10,2013-03-05 00:53:00,
2013-03-04 20:08:00,42.1,23.0,30.04,South,176,0.0,0.0,46,0.00,,,0.00,0,weatherlink.com 1.10,2013-03-05 01:08:00,
2013-03-04 20:23:00,41.8,23.0,30.05,South,176,0.0,0.0,47,0.00,,,0.00,0,weatherlink.com 1.10,2013-03-05 01:23:00,
2013-03-04 20:38:00,41.8,23.0,30.06,South,176,0.0,0.0,48,0.00,,,0.00,0,weatherlink.com 1.10,2013-03-05 01:38:00,
2013-03-04 20:53:00,41.8,25.0,30.06,South,176,0.0,0.0,51,0.00,,,0.00,0,weatherlink.com 1.10,2013-03-05 01:53:00,
2013-03-04 21:08:00,42.1,25.0,30.06,South,176,0.0,0.0,50,0.00,,,0.00,0,weatherlink.com 1.10,2013-03-05 02:08:00,
2013-03-04 21:23:00,42.2,24.0,30.07,South,176,0.0,0.0,49,0.00,,,0.00,0,weatherlink.com 1.10,2013-03-05 02:23:00,
2013-03-04 21:38:00,42.2,25.0,30.07,South,176,0.0,0.0,51,0.00,,,0.00,0,weatherlink.com 1.10,2013-03-05 02:38:00,
2013-03-04 21:53:00,42.2,25.0,30.07,South,176,0.0,0.0,51,0.00,,,0.00,0,weatherlink.com 1.10,2013-03-05 02:53:00,
2013-03-04 22:23:00,41.8,25.0,30.08,South,176,0.0,0.0,51,0.00,,,0.00,0,weatherlink.com 1.10,2013-03-05 03:23:00,
2013-03-04 22:39:00,41.3,24.0,30.09,South,176,0.0,0.0,51,0.00,,,0.00,0,weatherlink.com 1.10,2013-03-05 03:39:00,
2013-03-04 22:54:00,40.8,24.0,30.09,South,176,0.0,0.0,52,0.00,,,0.00,0,weatherlink.com 1.10,2013-03-05 03:54:00,
2013-03-04 23:08:00,40.2,24.0,30.09,South,176,0.0,0.0,52,0.00,,,0.00,0,weatherlink.com 1.10,2013-03-05 04:08:00,
2013-03-04 23:23:00,39.8,24.0,30.08,South,176,0.0,0.0,53,0.00,,,0.00,0,weatherlink.com 1.10,2013-03-05 04:23:00,
2013-03-04 23:38:00,39.3,23.0,30.08,South,176,0.0,0.0,53,0.00,,,0.00,0,weatherlink.com 1.10,2013-03-05 04:38:00,
2013-03-04 23:54:00,39.1,24.0,30.08,South,176,0.0,1.0,54,0.00,,,0.00,0,weatherlink.com 1.10,2013-03-05 04:54:00,